Weather History for Wheaton NDB, MN

Change the Weather History Date:

Sunday, September 15, 2013

  Actual Average Record
Temperature  
Mean Temperature 58 °F -  
Max Temperature 68 °F 72 °F 95 °F (1955)
Min Temperature 48 °F 47 °F 28 °F (2011)
Degree Days  
Heating Degree Days 7    
Growing Degree Days 8 (Base 50)    
Moisture  
Dew Point 55 °F    
Average Humidity 87    
Maximum Humidity 100    
Minimum Humidity 60    
Precipitation  
Precipitation 0.00 in - - ()
Sea Level Pressure  
Sea Level Pressure 30.17 in    
Wind  
Wind Speed 7 mph (NNW)    
Max Wind Speed 13 mph    
Max Gust Speed 18 mph    
Visibility 9 miles    
Events      
Averages and records for this station are not official NWS values.
T = Trace of Precipitation, MM = Missing Value Source: NWS Daily Summary

Daily Weather History Graph

Daily Weather History Graph

Search for Another Location

Airport:

Trip Planner

Search our weather history database for the weather conditions in past years. The results will help you decide how hot, cold, wet, or windy it might be!

Date:

Astronomy

Sep. 15, 2013 Rise Set
Actual Time 7:04 AM CDT 7:36 PM CDT
Civil Twilight 6:34 AM CDT 8:06 PM CDT
Nautical Twilight 5:59 AM CDT 8:42 PM CDT
Astronomical Twilight 5:22 AM CDT 9:18 PM CDT
Moon 5:14 PM CDT (9/15) 2:33 AM CDT (9/15)
Length of Visible Light 13h 31m
Length of Day
12h 32m
Waxing Gibbous, 82% of the Moon is Illuminated
Sep 15
Waxing Gibbous
Sep 19
Full
Sep 26
Last Quarter
Oct 4
New
Oct 11
First Quarter

Hourly Weather History & Observations

Time (CDT) Temp. Dew Point Humidity Pressure Visibility Wind Dir Wind Speed Gust Speed Precip Events Conditions
12:15 AM 60.8 °F 59.0 °F 94% 29.94 in 7.0 mi North 6.9 mph - N/A   Overcast
12:35 AM 60.8 °F 59.0 °F 94% 29.94 in 10.0 mi North 6.9 mph - N/A   Overcast
12:55 AM 60.8 °F 59.0 °F 94% 29.94 in 10.0 mi North 5.8 mph - N/A   Mostly Cloudy
1:14 AM 60.8 °F 59.0 °F 94% 29.94 in 10.0 mi North 5.8 mph - N/A   Mostly Cloudy
1:35 AM 59.0 °F 59.0 °F 100% 29.95 in 10.0 mi North 6.9 mph - N/A   Overcast
1:55 AM 59.0 °F 57.2 °F 94% 29.96 in 10.0 mi North 8.1 mph - N/A   Overcast
2:15 AM 59.0 °F 57.2 °F 94% 29.96 in 10.0 mi North 6.9 mph - N/A   Overcast
2:35 AM 59.0 °F 57.2 °F 94% 29.98 in 10.0 mi North 8.1 mph - N/A   Overcast
2:55 AM 57.2 °F 57.2 °F 100% 29.99 in 10.0 mi North 6.9 mph - N/A   Overcast
3:15 AM 57.2 °F 57.2 °F 100% 29.99 in 10.0 mi NNW 5.8 mph - N/A   Overcast
3:35 AM 57.2 °F 57.2 °F 100% 30.00 in 10.0 mi North 6.9 mph - N/A   Overcast
3:55 AM 57.2 °F 57.2 °F 100% 30.01 in 10.0 mi North 5.8 mph - N/A   Overcast
4:15 AM 57.2 °F 57.2 °F 100% 30.01 in 10.0 mi NNW 3.5 mph - N/A   Overcast
4:35 AM 57.2 °F 57.2 °F 100% 30.02 in 10.0 mi NW 4.6 mph - N/A   Overcast
4:55 AM 57.2 °F 57.2 °F 100% 30.03 in 10.0 mi NW 6.9 mph - N/A   Overcast
5:15 AM 57.2 °F 57.2 °F 100% 30.03 in 10.0 mi NW 6.9 mph - N/A   Overcast
5:35 AM 57.2 °F 57.2 °F 100% 30.04 in 10.0 mi NNW 5.8 mph - N/A   Overcast
5:55 AM 57.2 °F 57.2 °F 100% 30.05 in 7.0 mi NNW 8.1 mph - N/A   Overcast
6:15 AM 57.2 °F 57.2 °F 100% 30.06 in 7.0 mi NNW 8.1 mph - N/A   Overcast
6:35 AM 57.2 °F 57.2 °F 100% 30.07 in 4.0 mi NNW 5.8 mph - N/A   Overcast
6:55 AM 57.2 °F 57.2 °F 100% 30.08 in 3.0 mi NNW 6.9 mph - N/A   Overcast
7:16 AM 59.0 °F 57.2 °F 94% 30.09 in - NNW 6.9 mph - N/A   Unknown
7:35 AM 57.2 °F 57.2 °F 100% 30.10 in 3.0 mi NNW 11.5 mph - N/A   Overcast
7:55 AM 57.2 °F 55.4 °F 94% 30.11 in 4.0 mi NW 9.2 mph - N/A   Overcast
8:15 AM 57.2 °F 55.4 °F 94% 30.13 in 7.0 mi NW 8.1 mph - N/A   Overcast
8:35 AM 57.2 °F 57.2 °F 100% 30.13 in 7.0 mi NNW 9.2 mph - N/A   Overcast
8:55 AM 57.2 °F 57.2 °F 100% 30.14 in 7.0 mi NNW 6.9 mph - N/A   Overcast
9:15 AM 57.2 °F 57.2 °F 100% 30.15 in 7.0 mi NNW 10.4 mph - N/A   Overcast
9:35 AM 59.0 °F 57.2 °F 94% 30.16 in 10.0 mi NW 8.1 mph - N/A   Overcast
9:54 AM 59.0 °F 57.2 °F 94% 30.17 in 7.0 mi NNW 9.2 mph - N/A   Overcast
10:15 AM 57.2 °F 57.2 °F 100% 30.18 in 7.0 mi NNW 10.4 mph - N/A   Overcast
10:35 AM 57.2 °F 57.2 °F 100% 30.20 in 10.0 mi NW 10.4 mph 16.1 mph N/A   Overcast
10:55 AM 57.2 °F 57.2 °F 100% 30.21 in 10.0 mi NNW 10.4 mph - N/A   Overcast
11:16 AM 59.0 °F 57.2 °F 94% 30.21 in 10.0 mi NNW 11.5 mph - N/A   Overcast
11:35 AM 59.0 °F 57.2 °F 94% 30.22 in 10.0 mi NNW 12.7 mph 17.3 mph N/A   Overcast
11:54 AM 60.8 °F 59.0 °F 94% 30.22 in 10.0 mi NNW 12.7 mph - N/A   Overcast
12:14 PM 62.6 °F 57.2 °F 82% 30.22 in 10.0 mi NNW 11.5 mph 17.3 mph N/A   Mostly Cloudy
12:34 PM 62.6 °F 57.2 °F 82% 30.23 in 10.0 mi NNW 11.5 mph 18.4 mph N/A   Mostly Cloudy
12:55 PM 62.6 °F 57.2 °F 82% 30.23 in 10.0 mi NNW 10.4 mph 16.1 mph N/A   Mostly Cloudy
1:15 PM 64.4 °F 57.2 °F 77% 30.23 in 10.0 mi North 11.5 mph 16.1 mph N/A   Mostly Cloudy
1:35 PM 66.2 °F 57.2 °F 73% 30.23 in 10.0 mi NNW 12.7 mph 18.4 mph N/A   Scattered Clouds
1:55 PM 66.2 °F 57.2 °F 73% 30.23 in 10.0 mi NW 12.7 mph 18.4 mph N/A   Scattered Clouds
2:14 PM 66.2 °F 55.4 °F 68% 30.24 in 10.0 mi North 12.7 mph 17.3 mph N/A   Scattered Clouds
2:35 PM 66.2 °F 57.2 °F 73% 30.24 in 10.0 mi NNW 12.7 mph - N/A   Scattered Clouds
2:54 PM 68.0 °F 55.4 °F 64% 30.24 in 10.0 mi NNW 9.2 mph - N/A   Scattered Clouds
3:14 PM 68.0 °F 55.4 °F 64% 30.25 in 10.0 mi North 12.7 mph 18.4 mph N/A   Scattered Clouds
3:36 PM 66.2 °F 55.4 °F 68% 30.25 in 10.0 mi NNW 10.4 mph - N/A   Scattered Clouds
3:55 PM 68.0 °F 55.4 °F 64% 30.25 in 10.0 mi North 10.4 mph - N/A   Scattered Clouds
4:14 PM 66.2 °F 55.4 °F 68% 30.25 in 10.0 mi NNW 9.2 mph 16.1 mph N/A   Scattered Clouds
4:34 PM 68.0 °F 55.4 °F 64% 30.26 in 10.0 mi NNW 6.9 mph - N/A   Scattered Clouds
4:54 PM 68.0 °F 55.4 °F 64% 30.26 in 10.0 mi NNW 9.2 mph - N/A   Scattered Clouds
5:14 PM 68.0 °F 55.4 °F 64% 30.26 in 10.0 mi NNW 9.2 mph - N/A   Scattered Clouds
5:35 PM 68.0 °F 53.6 °F 60% 30.26 in 10.0 mi North 11.5 mph - N/A   Scattered Clouds
5:55 PM 66.2 °F 53.6 °F 64% 30.27 in 10.0 mi NNW 9.2 mph - N/A   Scattered Clouds
6:15 PM 66.2 °F 53.6 °F 64% 30.27 in 10.0 mi NNW 10.4 mph 16.1 mph N/A   Scattered Clouds
6:34 PM 66.2 °F 51.8 °F 60% 30.28 in 10.0 mi NNW 9.2 mph - N/A   Scattered Clouds
6:54 PM 64.4 °F 51.8 °F 64% 30.29 in 10.0 mi NNW 6.9 mph - N/A   Mostly Cloudy
7:14 PM 62.6 °F 51.8 °F 68% 30.29 in 10.0 mi North 3.5 mph - N/A   Scattered Clouds
7:34 PM 60.8 °F 51.8 °F 72% 30.29 in 10.0 mi NNE 3.5 mph - N/A   Clear
7:55 PM 59.0 °F 51.8 °F 77% 30.30 in 10.0 mi Calm Calm - N/A   Clear
8:15 PM 57.2 °F 50.0 °F 77% 30.30 in 10.0 mi Calm Calm - N/A   Clear
8:35 PM 55.4 °F 51.8 °F 88% 30.31 in 10.0 mi Calm Calm - N/A   Clear
8:55 PM 55.4 °F 51.8 °F 88% 30.31 in 10.0 mi Calm Calm - N/A   Clear
9:14 PM 51.8 °F 50.0 °F 94% 30.31 in 10.0 mi SE 3.5 mph - N/A   Clear
9:34 PM 51.8 °F 48.2 °F 88% 30.32 in 10.0 mi ESE 3.5 mph - N/A   Clear
9:54 PM 48.2 °F 46.4 °F 93% 30.32 in 10.0 mi Calm Calm - N/A   Clear
10:14 PM 50.0 °F 46.4 °F 87% 30.33 in 10.0 mi Calm Calm - N/A   Clear
10:34 PM 50.0 °F 48.2 °F 94% 30.33 in 10.0 mi Calm Calm - N/A   Clear
10:54 PM 50.0 °F 48.2 °F 94% 30.33 in 10.0 mi Calm Calm - N/A   Clear
11:15 PM 50.0 °F 46.4 °F 87% 30.34 in 10.0 mi Calm Calm - N/A   Clear
11:34 PM 48.2 °F 46.4 °F 93% 30.34 in 10.0 mi Calm Calm - N/A   Clear
11:55 PM 48.2 °F 46.4 °F 93% 30.35 in 10.0 mi South 3.5 mph - N/A   Clear